Date String (YYYY-MM-DD hh:mm:ss) UTC,Instrument flags,absolute air pressure of the measurement (hPa),sample flow rate (lpm),inlet stack bypass flow (lpm),air temperature of the measurement (°C),ambient temperature measured by the external sensor (°C),aerosol sample conditioner tube jacket temperature (°C),OPC LED temperature (°C),internal box temperature (°C),relative humidity of the measurement (%),span deviation,mass concentration of particles derived from Lorenz-Mie calculation of OPC scattering (μg/m³),mass concentration of particles derived from Lorenz-Mie calculation of OPC scattering (μg/m³),mass concentration of particles derived from Lorenz-Mie calculation of OPC scattering (μg/m³)
DateTimeUTC,F1_M11,P_M11,Q1_M11,Q2_M11,T1_M11,T2_M11,T3_M11,T4_M11,T5_M11,U1_M11,ZSPAN_M11,X2_M11,X0_M11,X1_M11
2023-12-08 20:00:00,SystemResetWarning,0820.7,5.01,000.00,021.8,020.9,000.0,030.1,023.1,14.2,0000.0,0003.37,0009.28,0002.58
2023-12-08 20:01:00,SystemResetWarning,0820.6,4.99,000.00,021.8,020.9,000.0,030.1,023.1,14.3,0000.0,0003.36,0009.18,0002.56
2023-12-08 20:02:00,SystemResetWarning,0820.4,4.99,000.00,021.8,020.9,000.0,030.1,023.1,14.3,0000.0,0003.30,0009.35,0002.55
2023-12-08 20:03:00,SystemResetWarning,0820.4,5.01,000.00,021.8,020.9,000.0,030.1,023.1,14.4,0000.0,0003.30,0009.59,0002.56
2023-12-08 20:04:00,SystemResetWarning,0820.3,5.01,000.00,021.8,020.9,000.0,030.1,023.1,14.2,0000.0,0003.31,0009.65,0002.58
2023-12-08 20:05:00,SystemResetWarning,0820.3,5.00,000.00,021.8,020.9,000.0,030.1,023.1,13.6,0000.0,0003.35,0010.08,0002.59
2023-12-08 20:06:00,SystemResetWarning,0820.3,4.98,000.00,021.8,020.9,000.0,030.1,023.1,13.6,0000.0,0003.35,0010.39,0002.61
2023-12-08 20:07:00,SystemResetWarning,0820.3,5.00,000.00,021.8,020.9,000.0,030.1,023.1,13.7,0000.0,0003.37,0010.51,0002.64
2023-12-08 20:08:00,SystemResetWarning,0820.4,5.00,000.00,021.8,020.9,000.0,030.1,023.1,14.1,0000.0,0003.43,0009.89,0002.67
2023-12-08 20:09:00,SystemResetWarning,0820.4,5.00,000.00,021.8,020.9,000.0,030.1,023.1,14.2,0000.0,0003.47,0010.52,0002.69
2023-12-08 20:10:00,SystemResetWarning,0820.4,5.00,000.00,021.8,020.9,000.0,030.1,023.1,14.2,0000.0,0003.50,0010.76,0002.72
2023-12-08 20:11:00,SystemResetWarning,0820.4,5.00,000.00,021.8,020.9,000.0,030.1,023.1,14.1,0000.0,0003.54,0010.74,0002.74
2023-12-08 20:12:00,SystemResetWarning,0820.4,5.01,000.00,021.8,020.9,000.0,030.1,023.2,14.2,0000.0,0003.60,0010.95,0002.76
2023-12-08 20:13:00,SystemResetWarning,0820.5,5.00,000.00,021.8,020.9,000.0,030.1,023.1,14.2,0000.0,0003.63,0011.15,0002.79
2023-12-08 20:14:00,SystemResetWarning,0820.6,5.00,000.00,021.8,020.9,000.0,030.1,023.1,14.1,0000.0,0003.61,0010.94,0002.79
2023-12-08 20:15:00,SystemResetWarning,0820.4,5.00,000.00,021.8,020.9,000.0,030.1,023.1,13.8,0000.0,0003.62,0011.73,0002.80
2023-12-08 20:16:00,SystemResetWarning,0820.4,5.00,000.00,021.8,020.9,000.0,030.1,023.2,14.0,0000.0,0003.60,0012.18,0002.77
2023-12-08 20:17:00,SystemResetWarning,0820.6,5.00,000.00,021.8,020.9,000.0,030.1,023.1,13.9,0000.0,0003.58,0011.97,0002.74
2023-12-08 20:18:00,SystemResetWarning,0820.7,5.01,000.00,021.8,020.9,000.0,030.1,023.1,14.0,0000.0,0003.57,0012.67,0002.71
2023-12-08 20:19:00,SystemResetWarning,0820.6,4.99,000.00,021.8,020.9,000.0,030.1,023.1,14.0,0000.0,0003.56,0012.30,0002.70
2023-12-08 20:20:00,SystemResetWarning,0821.0,4.99,000.00,021.8,020.9,000.0,030.1,023.1,14.1,0000.0,0003.59,0012.05,0002.70
2023-12-08 20:21:00,SystemResetWarning,0820.8,5.00,000.00,021.8,020.9,000.0,030.1,023.1,14.1,0000.0,0003.57,0011.21,0002.69
2023-12-08 20:22:00,SystemResetWarning,0820.9,5.01,000.00,021.8,020.9,000.0,030.1,023.2,14.2,0000.0,0003.57,0011.16,0002.67
2023-12-08 20:23:00,SystemResetWarning,0820.8,5.01,000.00,021.8,020.9,000.0,030.1,023.1,14.4,0000.0,0003.52,0011.28,0002.67
2023-12-08 20:24:00,SystemResetWarning,0820.9,5.00,000.00,021.8,020.9,000.0,030.1,023.1,14.5,0000.0,0003.52,0011.75,0002.65
2023-12-08 20:25:00,SystemResetWarning,0821.0,4.98,000.00,021.8,020.9,000.0,030.1,023.2,14.5,0000.0,0003.52,0011.49,0002.62
2023-12-08 20:26:00,SystemResetWarning,0820.9,5.00,000.00,021.8,020.9,000.0,030.1,023.2,14.5,0000.0,0003.49,0010.63,0002.59
2023-12-08 20:27:00,SystemResetWarning,0820.9,5.01,000.00,021.8,020.9,000.0,030.1,023.2,14.5,0000.0,0003.47,0009.98,0002.60
2023-12-08 20:28:00,SystemResetWarning,0820.8,5.00,000.00,021.8,020.9,000.0,030.1,023.2,14.3,0000.0,0003.47,0010.40,0002.62
2023-12-08 20:29:00,SystemResetWarning,0820.8,4.99,000.00,021.8,020.9,000.0,030.1,023.2,14.5,0000.0,0003.49,0009.67,0002.63
2023-12-08 20:30:00,SystemResetWarning,0820.8,4.99,000.00,021.8,020.9,000.0,030.1,023.2,14.5,0000.0,0003.49,0010.16,0002.63
2023-12-08 20:31:00,SystemResetWarning,0820.6,5.01,000.00,021.8,020.9,000.0,030.1,023.2,14.4,0000.0,0003.48,0010.56,0002.62
2023-12-08 20:32:00,SystemResetWarning,0820.8,5.01,000.00,021.8,020.9,000.0,030.1,023.2,14.6,0000.0,0003.49,0011.29,0002.62
2023-12-08 20:33:00,SystemResetWarning,0820.5,5.00,000.00,021.8,020.9,000.0,030.1,023.2,14.4,0000.0,0003.55,0012.98,0002.63
2023-12-08 20:34:00,SystemResetWarning,0820.5,4.99,000.00,021.9,021.0,000.0,030.1,023.2,14.6,0000.0,0003.59,0012.80,0002.65
2023-12-08 20:35:00,SystemResetWarning,0820.6,4.99,000.00,021.8,021.0,000.0,030.1,023.2,14.6,0000.0,0003.62,0013.23,0002.65
2023-12-08 20:36:00,SystemResetWarning,0820.6,5.00,000.00,021.8,021.0,000.0,030.1,023.2,14.5,0000.0,0003.65,0013.84,0002.69
2023-12-08 20:37:00,SystemResetWarning,0820.6,5.01,000.00,021.9,021.0,000.0,030.1,023.2,14.6,0000.0,0003.71,0014.30,0002.74
2023-12-08 20:38:00,SystemResetWarning,0820.6,5.01,000.00,021.9,021.0,000.0,030.1,023.2,14.6,0000.0,0003.77,0014.72,0002.75
2023-12-08 20:39:00,SystemResetWarning,0820.6,5.00,000.00,021.9,021.0,000.0,030.1,023.2,14.3,0000.0,0003.78,0014.15,0002.77
2023-12-08 20:40:00,SystemResetWarning,0820.6,4.99,000.00,021.9,021.0,000.0,030.1,023.2,14.2,0000.0,0003.75,0014.80,0002.78
2023-12-08 20:41:00,SystemResetWarning,0820.6,4.99,000.00,021.9,021.0,000.0,030.1,023.2,14.1,0000.0,0003.74,0014.42,0002.80
2023-12-08 20:42:00,SystemResetWarning,0820.6,5.00,000.00,021.9,021.0,000.0,030.1,023.2,14.0,0000.0,0003.71,0013.92,0002.81
2023-12-08 20:43:00,SystemResetWarning,0820.6,5.00,000.00,021.9,021.0,000.0,030.1,023.2,14.5,0000.0,0003.72,0013.25,0002.82
2023-12-08 20:44:00,SystemResetWarning,0820.6,5.01,000.00,021.9,021.0,000.0,030.1,023.2,14.2,0000.0,0003.65,0011.73,0002.81
2023-12-08 20:45:00,SystemResetWarning,0820.6,5.00,000.00,021.9,021.0,000.0,030.1,023.2,14.0,0000.0,0003.62,0011.88,0002.80
2023-12-08 20:46:00,SystemResetWarning,0820.7,4.99,000.00,021.9,021.0,000.0,030.1,023.3,14.1,0000.0,0003.61,0011.34,0002.81
2023-12-08 20:47:00,SystemResetWarning,0820.6,4.98,000.00,021.9,021.0,000.0,030.1,023.3,14.0,0000.0,0003.60,0010.43,0002.81
2023-12-08 20:48:00,SystemResetWarning,0820.6,5.00,000.00,021.9,021.0,000.0,030.2,023.3,14.2,0000.0,0003.56,0010.10,0002.77
2023-12-08 20:49:00,SystemResetWarning,0820.6,5.00,000.00,021.9,021.0,000.0,030.2,023.3,14.2,0000.0,0003.51,0009.93,0002.74
2023-12-08 20:50:00,SystemResetWarning,0820.6,5.01,000.00,021.9,021.0,000.0,030.2,023.3,14.1,0000.0,0003.47,0009.95,0002.71
2023-12-08 20:51:00,SystemResetWarning,0820.6,5.00,000.00,021.9,021.0,000.0,030.2,023.3,14.2,0000.0,0003.47,0009.70,0002.69
2023-12-08 20:52:00,SystemResetWarning,0820.6,4.99,000.00,021.9,021.0,000.0,030.2,023.3,14.4,0000.0,0003.44,0010.01,0002.66
2023-12-08 20:53:00,SystemResetWarning,0820.6,4.99,000.00,021.9,021.1,000.0,030.2,023.3,14.4,0000.0,0003.49,0010.21,0002.65
2023-12-08 20:54:00,SystemResetWarning,0820.6,4.99,000.00,021.9,021.1,000.0,030.2,023.3,14.4,0000.0,0003.49,0010.67,0002.64
2023-12-08 20:55:00,SystemResetWarning,0820.7,5.00,000.00,021.9,021.1,000.0,030.2,023.3,14.6,0000.0,0003.50,0010.62,0002.62
2023-12-08 20:56:00,SystemResetWarning,0820.6,5.00,000.00,022.0,021.1,000.0,030.2,023.3,14.7,0000.0,0003.49,0010.58,0002.60
2023-12-08 20:57:00,SystemResetWarning,0820.7,5.00,000.00,022.0,021.1,000.0,030.2,023.3,14.8,0000.0,0003.46,0011.17,0002.57
2023-12-08 20:58:00,SystemResetWarning,0820.7,5.01,000.00,022.0,021.1,000.0,030.2,023.4,14.9,0000.0,0003.42,0010.90,0002.55
2023-12-08 20:59:00,SystemResetWarning,0820.7,5.00,000.00,022.0,021.1,000.0,030.2,023.4,14.9,0000.0,0003.41,0010.74,0002.54
